CZ-6A DEB, 54306

Orbit data source: Space-Track

CZ-6A DEB, 54306 is space debris in SSO originally from a launch on Fri, 11 Nov 2022 UTC launched from the Taiyaun Space Center, China (TSC). Debris objects in space refer to the collection of defunct objects orbiting the Earth. Examples of debris include non-operational satellites, rocket bodies, and fragments generated from explosions, collisions, or faulty payload assembly.

Loading next visibility...
Identifier
54306, 2022-151AZ
Orbit
SSO
Country
Flag of CNCN / PRC
Related business
Manufacturer
SAST
Mission
Spacecraft
Bus & Motor
Unknown
Mass
Unknown
Launch date (UTC)
2022-11-11 (3 years ago)
Launch vehicle
Unknown
Launch site
Taiyaun Space Center, China (TSC)
Object type
Payload
Rocket body
Debris
Shape & HBR
Unknown shape, 0.2 m
Radar Cross Section
Small (<0.1 m²)

Expand to show TLE details & history
Last TLE update: 5 hours ago

TLE from 5 hours ago
0 CZ-6A DEB
1 54306U 22151AZ  25355.56669748  .00000335  00000-0  20682-3 0  9992
2 54306  98.8322 356.0217 0040653 109.3175 251.2399 14.11519801159535
Epoch: 2025-12-21T13:36Z
TLE epoch observation values (Epoch: 2025-12-21T13:36:02.662Z)
Latitude
-0.00004°
Longitude
61.63331°
Altitude
866.639 km
Speed
7.414 km/s
True Right ascension
23h 44m 05s
True Declination
0° 00' 00"
Sunlit
Object was in daylight at epoch
Visualization orbit readout
Latitude
Unknown
Longitude
Unknown
Altitude
Unknown
Speed
Unknown
Apparent Right ascension
Unknown
Apparent Declination
Unknown
Sunlit
N/A
Visualization observer readout
Local Sidereal Time
17:39:48
Azimuth
Unknown
Elevation
Unknown
Doppler factor
Unknown
Orbital elements
Apogee altitude
880.741 km
Perigee altitude
821.961 km
Semi-major axis
7,229.488 km
Eccentricity
0.00407
Inclination
98.8322°
RAAN
356.0217°
Arg. of periapsis
109.3175°
True anomaly
250.79952°
Mean anomaly
251.2399°
Eccentric anomaly
251.01964°
Mean motion
3.53087 °/min
Orbital period
101.96 mins
BSTAR
0.00020682
Loading maneuver chart data...
Computing Atmospheric mass density...
Loading historical data...
Loading historical data...
Loading historical data...
Loading historical data...
Loading historical data...
Loading historical data...
Loading historical data...

Documentation

Showing up to 5 results
|